Location: Boca do Mato
(22.9085°S, 43.2930°W)
Time: 01:00:34
(UTC+00:00)

Hubble Space Telescope - Visible Passes

Search period start: 21 September 2020 00:00
Search period end: 01 October 2020 00:00
Orbit: 536 x 540 km, 28.5° (Epoch: 20 September)

Date Brightness Start Highest point End Pass type
(mag) Time Alt. Az. Time Alt. Az. Time Alt. Az.
21 Sep 1.5 22:07:45 10° W 22:11:47 47° S 22:13:01 35° SE visible
22 Sep 1.6 21:57:09 10° W 22:01:08 43° S 22:03:02 26° SE visible
23 Sep 1.8 21:46:33 10° WSW 21:50:30 39° S 21:53:01 19° SE visible
23 Sep 4.0 23:28:06 10° WSW 23:28:21 11° WSW 23:28:21 11° WSW visible
24 Sep 1.8 21:35:58 10° WSW 21:39:52 38° S 21:42:58 15° ESE visible
24 Sep 3.7 23:17:23 10° WSW 23:18:18 16° WSW 23:18:18 16° WSW visible
25 Sep 1.8 21:25:21 10° WSW 21:29:14 37° S 21:32:54 11° ESE visible
25 Sep 3.2 23:06:41 10° WSW 23:08:13 21° WSW 23:08:13 21° WSW visible
26 Sep 1.8 21:14:42 10° WSW 21:18:36 37° S 21:22:30 10° ESE visible
26 Sep 2.6 22:55:57 10° WSW 22:58:09 29° WSW 22:58:09 29° WSW visible
27 Sep 1.9 22:45:14 10° WSW 22:48:06 42° WSW 22:48:06 42° WSW visible
28 Sep 1.1 22:34:32 10° WSW 22:38:04 62° WSW 22:38:04 62° WSW visible
29 Sep 0.7 22:23:50 10° WSW 22:28:00 72° NNW 22:28:03 72° NNW visible
30 Sep 1.1 22:13:10 10° W 22:17:16 56° NNW 22:18:05 46° NNE visible
